FW3063 Weather Reports


time (UTC)temp
C
wind
direction
speed
KPH
gust
KPH
rain 1hr
cm
rain 24hr
cm
rain mn
cm
humidity
%
barometer
mb
20260503004818 16 226 3.2 9.7 0.00 0.00 0.00 42 1011.8
20260503003826 16 207 0.0 1.6 0.00 0.00 0.00 42 1011.8
20260503002826 16 0.0 0.0 0.00 0.00 0.00 42 1011.9
20260503001856 17 237 4.8 9.7 0.00 0.00 0.00 41 1012.1
20260503000818 17 273 4.8 11.3 0.00 0.00 0.00 41 1012.3
20260502235826 17 260 4.8 14.5 0.00 0.00 0.00 39 1011.9
20260502234818 17 212 1.6 3.2 0.00 0.00 0.00 37 1011.9
20260502233856 17 209 0.0 1.6 0.00 0.00 0.00 38 1011.9
20260502232819 18 209 1.6 3.2 0.00 0.00 0.00 37 1011.9
20260502231827 18 197 1.6 3.2 0.00 0.00 0.00 36 1012.1
20260502230819 18 189 0.0 1.6 0.00 0.00 0.00 38 1012.3
20260502225827 17 207 1.6 3.2 0.00 0.00 0.00 37 1012.3
20260502224819 17 175 0.0 3.2 0.00 0.00 0.00 36 1012.3
20260502223857 17 220 1.6 3.2 0.00 0.00 0.00 36 1012.6
20260502222819 17 253 4.8 12.9 0.00 0.00 0.00 34 1012.6
20260502221827 18 222 3.2 4.8 0.00 0.00 0.00 35 1012.7
20260502220819 18 236 3.2 11.3 0.00 0.00 0.00 34 1012.8
20260502215827 18 207 3.2 11.3 0.00 0.00 0.00 35 1012.9
20260502214819 18 224 3.2 9.7 0.00 0.00 0.00 34 1013.0
20260502213826 18 259 3.2 6.4 0.00 0.00 0.00 34 1013.0
20260502212849 18 256 4.8 9.7 0.00 0.00 0.00 35 1013.3
20260502211857 18 206 3.2 4.8 0.00 0.00 0.00 34 1013.5
20260502210819 20 257 4.8 14.5 0.00 0.00 0.00 32 1013.6
20260502205826 18 213 1.6 4.8 0.00 0.00 0.00 34 1013.8
20260502204849 18 255 3.2 11.3 0.00 0.00 0.00 33 1014.0
20260502203927 18 231 4.8 17.7 0.00 0.00 0.00 34 1014.3
20260502202819 18 200 3.2 6.4 0.00 0.00 0.00 34 1014.6
20260502201957 18 293 8.0 12.9 0.00 0.00 0.00 33 1014.7
20260502200819 18 153 6.4 12.9 0.00 0.00 0.00 34 1015.1
20260502195827 18 179 4.8 9.7 0.00 0.00 0.00 35 1015.2
20260502194819 17 203 3.2 9.7 0.00 0.00 0.00 35 1015.3
20260502193826 17 202 4.8 9.7 0.00 0.00 0.00 35 1015.4
20260502192819 16 247 4.8 9.7 0.00 0.00 0.00 34 1015.7
20260502191827 16 251 3.2 9.7 0.00 0.00 0.00 36 1015.8
20260502190818 17 245 4.8 11.3 0.00 0.00 0.00 35 1016.1
20260502185827 16 194 6.4 11.3 0.00 0.00 0.00 37 1016.3
20260502184849 16 213 3.2 6.4 0.00 0.00 0.00 36 1016.8
20260502183826 16 213 3.2 9.7 0.00 0.00 0.00 37 1016.6
20260502182819 16 263 6.4 12.9 0.00 0.00 0.00 35 1016.8
20260502181828 16 201 4.8 9.7 0.00 0.00 0.00 36 1017.0
20260502180819 15 236 3.2 9.7 0.00 0.00 0.00 36 1017.1
20260502163827 13 221 1.6 4.8 0.00 0.00 0.00 41 1018.7
20260502162818 13 230 3.2 9.7 0.00 0.00 0.00 41 1018.7
20260502161828 13 249 4.8 11.3 0.00 0.00 0.00 40 1018.9
20260502160820 13 204 4.8 11.3 0.00 0.00 0.00 38 1019.1
20260502151827 12 244 4.8 6.4 0.00 0.00 0.00 45 1019.5
20260502150819 11 185 1.6 4.8 0.00 0.00 0.00 48 1019.3
20260502122849 4 221 1.6 4.8 0.00 0.00 0.00 73 1019.8
20260502121827 3 0.0 0.0 0.00 0.00 0.00 75 1019.8
20260502120819 3 0.0 0.0 0.00 0.00 0.00 75 1019.8
20260502115827 2 0.0 0.0 0.00 0.00 0.00 77 1019.9
20260502114819 2 0.0 0.0 0.00 0.00 0.00 77 1019.9
20260502113826 2 0.0 0.0 0.00 0.00 0.00 78 1019.8
20260502112819 2 0.0 0.0 0.00 0.00 0.00 79 1019.8
20260502111857 1 0.0 0.0 0.00 0.00 0.00 81 1019.6
20260502110819 1 0.0 0.0 0.00 0.00 0.00 81 1019.6
20260502105857 1 0.0 0.0 0.00 0.00 0.00 81 1019.6
20260502104819 1 0.0 0.0 0.00 0.00 0.00 80 1019.6
20260502103827 1 0.0 0.0 0.00 0.00 0.00 79 1019.6
20260502102819 1 0.0 0.0 0.00 0.00 0.00 77 1019.5
20260502101857 2 0.0 0.0 0.00 0.00 0.00 76 1019.6
20260502100849 2 0.0 0.0 0.00 0.00 0.00 75 1019.6
20260502090819 2 0.0 0.0 0.00 0.00 0.00 78 1019.3
20260502070850 2 0.0 0.0 0.00 0.00 0.00 74 1019.7
20260502065828 2 0.0 0.0 0.00 0.00 0.00 73 1019.7
20260502064920 2 0.0 0.0 0.00 0.00 0.00 72 1019.9
20260502063827 3 0.0 0.0 0.00 0.00 0.00 70 1019.8
20260502062819 3 0.0 0.0 0.00 0.00 0.00 71 1020.0
20260502061828 3 0.0 0.0 0.00 0.00 0.00 70 1019.8
20260502060819 2 0.0 0.0 0.00 0.00 0.00 72 1020.0
20260502055827 3 0.0 0.0 0.00 0.00 0.00 70 1020.0
20260502054818 3 0.0 0.0 0.00 0.00 0.00 70 1020.0
20260502053817 3 0.0 0.0 0.00 0.00 0.00 69 1020.0
20260502052825 3 0.0 0.0 0.00 0.00 0.00 69 1020.0
20260502051817 3 0.0 0.0 0.00 0.00 0.00 68 1019.9
20260502050825 4 0.0 0.0 0.00 0.00 0.00 67 1019.9
20260502045817 3 0.0 0.0 0.00 0.00 0.00 68 1019.8
20260502044855 4 0.0 0.0 0.00 0.00 0.00 66 1019.8
20260502043817 4 0.0 0.0 0.00 0.00 0.00 65 1019.7
20260502042824 4 0.0 0.0 0.00 0.00 0.00 65 1019.8
20260502041817 5 0.0 0.0 0.00 0.00 0.00 65 1019.8
20260502040825 5 0.0 0.0 0.00 0.00 0.00 63 1019.8
20260502035847 5 0.0 0.0 0.00 0.00 0.00 62 1019.7
20260502034825 5 0.0 0.0 0.00 0.00 0.00 61 1019.9
20260502033817 5 0.0 0.0 0.00 0.00 0.00 59 1019.9
20260502032825 5 0.0 0.0 0.00 0.00 0.00 58 1019.9
20260502031817 5 0.0 0.0 0.00 0.00 0.00 55 1019.8
20260502030825 5 0.0 0.0 0.00 0.00 0.00 53 1019.9
20260502025818 6 0.0 0.0 0.00 0.00 0.00 52 1019.9
20260502024825 6 0.0 0.0 0.00 0.00 0.00 52 1019.7
20260502023918 6 0.0 0.0 0.00 0.00 0.00 53 1019.8
20260502022824 6 0.0 0.0 0.00 0.00 0.00 54 1019.9
20260502021817 6 0.0 0.0 0.00 0.00 0.00 52 1019.8
20260502020825 6 0.0 0.0 0.00 0.00 0.00 48 1019.7
20260502015817 7 0.0 0.0 0.00 0.00 0.00 44 1019.6
20260502014825 7 0.0 0.0 0.00 0.00 0.00 44 1019.4
20260502013817 7 0.0 0.0 0.00 0.00 0.00 42 1019.4
20260502012925 7 0.0 0.0 0.00 0.00 0.00 44 1019.3
20260502011817 8 0.0 0.0 0.00 0.00 0.00 41 1019.3
20260502010825 8 0.0 0.0 0.00 0.00 0.00 38 1019.3
20260502005817 8 0.0 0.0 0.00 0.00 0.00 38 1019.3